Regional Weather Roundup
Issued by NWS

Home | Current Version | Previous Version | Text Only | Print | Product List | Glossary Off
Versions: 1 2 3 4 5 6 7 8 9 10 11 12 13 14 15 16 17 18 19 20 21 22 23 24 25 26 27 28 29 30 31 32 33 34 35 36 37 38 39 40 41 42 43 44 45 46 47 48 49 50

000
ASUS43 KMPX 300710
RWRMN
WEATHER ROUNDUP FOR MINNESOTA
NATIONAL WEATHER SERVICE TWIN CITIES/CHANHASSEN MN
200 AM CDT TUE JUN 30 2015


NOTE: "FAIR" INDICATES FEW OR NO CLOUDS BELOW 12,000 FEET WITH NO
SIGNIFICANT WEATHER AND/OR OBSTRUCTIONS TO VISIBILITY. N/A MEANS
CURRENT SKY AND/OR WEATHER CONDITIONS ARE NOT AVAILABLE.

MNZ060>063-068>070-300800-
   Twin Cities Metro

CITY           SKY/WX    TMP DP  RH WIND       PRES   REMARKS
TWIN CITIES    PTCLDY    64  62  93 NE3       29.85R
ST PAUL        PTCLDY    62  62 100 CALM      29.84S FOG
CRYSTAL        CLEAR     64  61  90 CALM      29.84R FOG
BLAINE         MOCLDY    61  61 100 CALM      29.85S FOG
LAKEVILLE      MOCLDY    61  59  94 CALM      29.85R
EDEN PRAIRIE   PTCLDY    63  62  97 CALM      29.84R FOG
SOUTH ST PAUL  PTCLDY    64  62  93 CALM      29.84F
LAKE ELMO      MOCLDY    61  61 100 CALM      29.85F
$$
MNZ001>005-007-008-013>017-022>024-027-028-300800-
   Northwest Minnesota

CITY           SKY/WX    TMP DP  RH WIND       PRES   REMARKS
BEMIDJI        CLEAR     53  51  95 CALM      29.93S
HALLOCK        CLEAR     57  55  94 CALM      29.95R
ROSEAU         CLEAR     57  52  82 CALM      29.95S
WARROAD        CLEAR     64  57  77 E10       29.96R
THIEF RVR FALL CLEAR     61  57  88 N3        29.95R
CROOKSTON      CLEAR     55  55 100 NW3       29.95R
FOSSTON        CLEAR     54  52  94 CALM      29.95R
DETROIT LAKES  CLEAR     63  57  82 NE3       29.94R
MOORHEAD       PTCLDY    61  59  94 N5        29.93S
PARK RAPIDS    CLEAR     63  56  78 N3        29.93R
MAHNOMEN       FAIR      59  58  96 CALM      29.94R
$$
MNZ006-009>011-018-025>026-300800-
   North Central Minnesota

CITY           SKY/WX    TMP DP  RH WIND       PRES   REMARKS
BAUDETTE       CLEAR     58  53  84 NE7       29.94S
FLAG ISLAND    CLEAR     61  54  77 E6        29.94F
INTL FALLS     MOCLDY    57  51  80 E6        29.95R
WASKISH        CLEAR     57  55  94 NE5       29.94S
BIG FORK       CLEAR     57  54  88 N3        29.93S
LONGVILLE      CLEAR     57  55  94 CALM      29.91S
GRAND RAPIDS   CLEAR     57  54  88 N3        29.92R
CRANE LAKE     CLEAR     54  52  94 NW2       29.95S
ORR            CLEAR     55  50  82 CALM      29.91S
COOK           CLEAR     55  52  88 CALM      29.94R
WALKER         FAIR      56  54  94 CALM      29.92S
$$
MNZ012-019>021-037-300800-
   Northeast Minnesota

CITY           SKY/WX    TMP DP  RH WIND       PRES   REMARKS
DULUTH         MOCLDY    62  57  83 N8        29.88R
ELY            PTCLDY    57  54  88 N3        29.92R
HIBBING        CLEAR     59  55  87 N5        29.91R
EVELETH        CLEAR     59  55  88 N6        29.92R
DULUTH HARBOR  MOCLDY    63  61  94 NE5       29.87S
GRAND MARAIS     N/A     59  52  77 VRB6      29.86S
G MARAIS ARPRT CLOUDY    52  48  87 N14       29.91S
$$
MNZ029>031-032-039>041-046>048-054>057-064-300800-
   West Central Minnesota

CITY           SKY/WX    TMP DP  RH WIND       PRES   REMARKS
FERGUS FALLS   CLEAR     63  63 100 CALM      29.92S
WHEATON        PTCLDY    61  59  94 N5        29.93S
MORRIS         CLEAR     63  63 100 NW6       29.90S FOG
ALEXANDRIA     CLEAR     66  61  84 NE8       29.93R
ELBOW LAKE     FAIR      64  63  98 N3        29.92R
WADENA         PTCLDY    61  57  88 N3        29.92R
GLENWOOD       CLEAR     64  63  94 N6        29.92R
APPLETON       CLEAR     64  63  94 N6        29.90S
BENSON         CLEAR     63  61  94 N3        29.90S
ORTONVILLE     PTCLDY    64  61  88 N7        29.91S
MADISON        PTCLDY    64  61  88 NW5       29.91S
WILLMAR        FAIR      64  63  94 NW5       29.90S
$$
MNZ033>034-036-042>043-049>051-058-059-300800-
   Central Minnesota

CITY           SKY/WX    TMP DP  RH WIND       PRES   REMARKS
ST CLOUD       CLEAR     63  58  83 N3        29.87S
SAUK CENTRE    FAIR      65  62  89 N5        29.91R
PAYNESVILLE    CLEAR     63  62  97 NW3       29.89S
AITKIN           N/A     54  48  82 CALM      29.89S HAZE
PINE RIVER     CLEAR     57  54  88 CALM      29.95S
BRAINERD       CLEAR     60  55  83 N3        29.91R
STAPLES        PTCLDY    61  57  88 CALM      29.92R
LONG PRAIRIE   FAIR      63  59  88 N5        29.92R
LITTLE FALLS   CLEAR     63  55  77 CALM      29.90R
LITCHFIELD     CLEAR     66  64  94 NW5       29.89R
BUFFALO        CLEAR     66  58  75 N5        29.87R
MAPLE LAKE     CLEAR     66  61  83 N5        29.88R
$$
MNZ037-044-045-052-053-300800-
   East Central Minnesota

CITY           SKY/WX    TMP DP  RH WIND       PRES   REMARKS
PRINCETON      CLEAR     63  61  94 CALM      29.87S
MORA           CLEAR     59  57  94 CALM      29.89S
CAMBRIDGE      CLEAR     64  55  72 CALM      29.84S
MOOSE LAKE     CLOUDY    61  59  94 N3        29.86S
HINCKLEY       FAIR      61  59  94 N7        29.86S
CLOQUET        MOCLDY    59  55  88 N6        29.88S
MCGREGOR       CLEAR     57  54  88 NW3       29.90S
$$
MNZ071>073-080-081-089-090-097-098-300800-
   Southwest Minnesota

CITY           SKY/WX    TMP DP  RH WIND       PRES   REMARKS
MONTEVIDEO     CLEAR     64  61  88 N6        29.90F
GRANITE FALLS  CLOUDY    64  62  92 W6        29.91S
CANBY          CLOUDY    63  60  91 W3        29.92S
MARSHALL       PTCLDY    63  57  82 NW7       29.91S
REDWOOD FALLS  CLEAR     66  64  93 NW7       29.88S
OLIVIA         CLEAR     61  59  94 NW6       29.88S
PIPESTONE      MOCLDY    66  61  82 NE3       29.93F
WINDOM         CLEAR     66  63  88 NW7       29.91S
WORTHINGTON    MOCLDY    63  57  82 N7        29.93S
JACKSON        CLEAR     64  63  94 NW7       29.91S
TRACY          CLOUDY    66  64  93 NW6       29.91F
SLAYTON        MOCLDY    62  61  97 CALM      29.94S
$$
MNZ065>067-074>077-082>085-091>093-300800-
   South Central Minnesota

CITY           SKY/WX    TMP DP  RH WIND       PRES   REMARKS
MANKATO        CLEAR     66  63  88 NW7       29.85S
NEW ULM        CLEAR     64  64 100 NW7       29.87S
ST JAMES       CLEAR     66  64  94 W7        29.88S
FAIRMONT       CLEAR     66  59  77 NW9       29.88S
GLENCOE        PTCLDY    67  64  91 NW5       29.86R
FARIBAULT      PTCLDY    59  57  94 CALM      29.85S
OWATONNA       CLEAR     61  57  88 CALM      29.85S
WASECA         CLEAR     63  61  94 NW5       29.86S FOG
ALBERT LEA     CLEAR     63  61  94 NW3       29.85S
$$
MNZ078>079-086>088-094>096-300800-
   Southeast Minnesota

CITY           SKY/WX    TMP DP  RH WIND       PRES   REMARKS
ROCHESTER      CLEAR     59  57  93 W3        29.86S FOG
RED WING       PTCLDY    57  57 100 CALM      29.83S FOG
STANTON        MOCLDY    61  57  88 CALM      29.83S
DODGE CENTER   PTCLDY    61  57  88 W5        29.85S
WINONA         CLOUDY    59  59 100 NW5       29.83S FOG
AUSTIN         CLEAR     61  57  88 CALM      29.84F
PRESTON        CLEAR     59  56  89 W6        29.86S
$$
ABBREVIATIONS USED IN REMARKS
   TC - TEMPERATURES IN CELSIUS
  WCI - WIND CHILL INDEX
   HX - HEAT INDEX
  VSB - VISIBILITY
$$


USA.gov is the U.S. government's official web portal to all federal, state and local government web resources and services.